Date,TemperatureHighF,TemperatureAvgF,TemperatureLowF,DewpointHighF,DewpointAvgF,DewpointLowF,HumidityHigh,HumidityAvg,HumidityLow,PressureMaxIn,PressureMinIn,WindSpeedMaxMPH,WindSpeedAvgMPH,GustSpeedMaxMPH,PrecipitationSumIn
2013-5-1,62.6,47.6,35.5,45.5,40.0,32.6,93,76,40,30.54,30.46,19,7,20,0.00
2013-5-2,59.9,50.8,45.5,48.4,43.2,38.0,89,76,49,30.50,30.35,19,9,22,0.00
2013-5-3,61.1,50.3,41.8,52.0,46.7,39.9,95,87,70,30.37,30.19,16,7,18,0.00
2013-5-4,83.0,60.0,45.0,53.9,46.6,41.9,96,67,26,30.19,29.93,14,6,17,0.00
2013-5-5,86.2,64.6,51.2,50.1,45.8,40.3,79,54,21,29.94,29.73,14,5,19,0.00
2013-5-6,58.7,51.9,48.8,52.5,50.0,46.9,98,93,74,29.89,29.77,19,10,21,0.00
2013-5-7,55.5,52.9,50.4,52.6,51.1,49.6,97,94,89,30.04,29.89,16,11,17,0.00
2013-5-8,56.8,53.7,50.8,52.8,50.6,47.9,94,90,81,30.18,30.04,9,6,11,0.00
2013-5-9,55.1,51.5,49.0,50.4,48.4,46.5,93,89,83,30.22,30.16,14,8,16,0.00
2013-5-10,52.2,50.3,48.6,49.4,48.3,47.3,97,93,87,30.23,30.17,13,5,13,0.00
2013-5-11,58.0,54.5,50.0,55.1,52.1,47.8,94,92,88,30.22,30.04,12,6,14,0.00
2013-5-12,57.4,55.5,54.2,55.7,54.7,53.9,100,97,93,30.10,30.03,17,11,20,0.21
2013-5-13,55.5,53.8,51.7,55.2,51.9,46.6,100,94,80,30.21,29.97,28,14,35,0.26
2013-5-14,56.6,52.9,47.2,50.0,48.0,45.3,94,84,75,30.22,30.13,10,4,12,0.01
2013-5-15,54.2,51.6,48.3,53.4,49.6,45.9,97,93,82,30.12,29.98,20,7,21,0.11
2013-5-16,60.1,55.3,53.2,57.3,53.5,51.5,98,94,88,29.98,29.92,18,9,20,0.06
2013-5-17,57.2,54.7,52.3,54.9,52.4,50.8,96,92,88,30.06,29.95,19,13,22,0.04
2013-5-18,54.6,53.1,51.0,53.8,51.2,47.7,98,93,79,30.29,30.06,16,10,20,0.11
2013-5-19,55.7,52.9,50.7,50.3,48.2,45.9,93,84,79,30.44,30.30,18,14,21,0.00
2013-5-20,56.0,52.2,48.5,48.5,47.0,45.8,94,83,74,30.39,29.95,16,7,18,0.06
2013-5-21,51.4,49.9,48.4,46.9,45.5,43.5,93,85,78,29.94,29.82,21,13,24,0.09
2013-5-22,54.0,51.2,47.2,49.8,47.2,44.7,91,86,83,29.91,29.85,13,6,13,0.03
2013-5-23,50.9,48.0,45.2,49.8,46.6,43.7,97,95,92,29.94,29.91,9,4,12,0.51
2013-5-24,56.2,50.7,45.4,51.3,47.9,44.4,97,90,77,30.06,29.93,11,4,12,0.00
2013-5-25,52.8,51.2,49.3,51.8,50.0,47.6,98,96,89,30.04,29.94,14,5,17,0.84
2013-5-26,56.0,53.2,51.0,54.8,52.2,50.5,98,96,91,29.99,29.92,23,11,27,0.07
2013-5-27,55.8,52.9,50.5,55.0,51.9,49.4,99,96,93,29.93,29.64,22,12,25,0.66
2013-5-28,56.3,52.7,50.2,53.4,50.9,48.7,97,94,87,29.90,29.74,20,13,22,0.14
2013-5-29,55.3,51.3,49.1,51.6,49.6,48.2,98,94,84,29.89,29.67,14,6,16,0.18